Regional Weather Roundup
Issued by NWS

Home | Current Version | Previous Version | Text Only | Print | Product List | Glossary Off
Versions: 1 2 3 4 5 6 7 8 9 10 11 12 13 14 15 16 17 18 19 20 21 22 23 24 25 26 27 28 29 30 31 32 33 34 35 36 37 38 39 40 41 42 43 44 45 46 47 48 49 50

000
ASUS43 KLOT 230600
RWRIL

ILLINOIS REGIONAL WEATHER ROUNDUP
NATIONAL WEATHER SERVICE CHICAGO/ROMEOVILLE IL
1200 AM CST SUN NOV 23 2014

NOTE: "FAIR" INDICATES FEW OR NO CLOUDS BELOW 12,000 FEET WITH NO
SIGNIFICANT WEATHER AND/OR OBSTRUCTIONS TO VISIBILITY.

* THESE STATIONS ARE NOT UNDER NWS QUALITY CONTROL. THEY ALSO MAY NOT
  REPORT WEATHER SUCH AS PRECIPITATION OR FOG.

ILZ001-002-007-009-015-016-024-230700-
NORTHWEST ILLINOIS

CITY           SKY/WX    TMP DP  RH WIND       PRES   REMARKS
MOLINE         CLOUDY    52  48  86 S15G22    29.76S
6HR MIN TEMP:  50; 6HR MAX TEMP:  55;

STERLING*      CLOUDY    48  45  87 S6        29.79F
$$

ILZ003-004-008-010-011-017-018-230700-
NORTH CENTRAL ILLINOIS

CITY           SKY/WX    TMP DP  RH WIND       PRES   REMARKS
ROCKFORD       CLOUDY    48  45  89 S10       29.82S
6HR MIN TEMP:  46; 6HR MAX TEMP:  50;

FREEPORT*      CLOUDY    48  46  92 S13       29.79S
DE KALB*       CLOUDY    46  44  94 S15       29.83S
$$

ILZ005-006-012>014-019>023-230700-
NORTHEAST ILLINOIS

CITY           SKY/WX    TMP DP  RH WIND       PRES   REMARKS
CHICAGO-OHARE  CLOUDY    52  46  80 SW16      29.84R
6HR MIN TEMP:  51; 6HR MAX TEMP:  52;

CHICAGO-MIDWAY CLOUDY    51  47  86 S13       29.87R
6HR MIN TEMP:  51; 6HR MAX TEMP:  54;

AURORA         CLOUDY    50  45  83 S12       29.84S
6HR MIN TEMP:  50; 6HR MAX TEMP:  53;

WAUKEGAN       MOCLDY    50  46  86 SW18      29.81S
6HR MIN TEMP:  48; 6HR MAX TEMP:  50;

DUPAGE AIRPORT CLOUDY    50  46  86 S13       29.84R
6HR MIN TEMP:  50; 6HR MAX TEMP:  51;

WHEELING       CLOUDY    52  47  83 S14       29.86R
6HR MIN TEMP:  50; 6HR MAX TEMP:  52;

NORTHERLY ISL    N/A     52  45  77 S17         N/A
$$

LMZ740>746-230700-
SOUTHERN LAKE MICHIGAN

STATION/POSITION SKY/WX   TEMP    WIND        PRES    VSBY  WAVE
                          AIR SEA DIR/SP/G                  HT/PER
                          (F)     (DEG/KT/KT) (MB)    (MI)  (FT/S)
SOUTHERN BUOY              46 43  200/ 12/ 14 1010.9S         2/ 4
WAUKEGAN HARBOR            52     220/ 18/ 24   N/A
HARRISON CRIB              52     200/ 28/ 35   N/A
BURNHAM HARBOR             52     200/  8/ 16   N/A
CALUMET HARBOR             52     200/ 12/ 16 1010.3R
MICHIGAN CITY              52     170/ 16/ 20   N/A
$$

ILZ025>027-034>036-040-047-049-050-058-095>099-230700-
WEST-CENTRAL ILLINOIS

CITY           SKY/WX    TMP DP  RH WIND       PRES   REMARKS
QUINCY         MOCLDY    53  48  83 S12       29.78F
$$

ILZ028>032-037-038-041>044-048-051>054-059>061-230700-
CENTRAL ILLINOIS

CITY           SKY/WX    TMP DP  RH WIND       PRES   REMARKS
DECATUR        CLOUDY    50  46  86 S9        29.88F
PEORIA         CLOUDY    54  48  80 S15G22    29.83S
6HR MIN TEMP:  52; 6HR MAX TEMP:  56;

LINCOLN*       MOCLDY    51  48  89 S10       29.86S
SPRINGFIELD    PTCLDY    52  48  86 S16       29.85F
6HR MIN TEMP:  51; 6HR MAX TEMP:  54; 6HR PCP: TRACE;

TAYLORVILLE    NOT AVBL
$$

ILZ033-039-045-046-055>057-062-063-230700-
EAST-CENTRAL ILLINOIS

CITY           SKY/WX    TMP DP  RH WIND       PRES   REMARKS
CHAMPAIGN      LGT RAIN  49  46  90 SE12      29.90F
MATTOON        LGT RAIN  50  43  77 S12       29.91F
$$

ILZ079-100>102-230700-
SOUTHWEST ILLINOIS

CITY           SKY/WX    TMP DP  RH WIND       PRES   REMARKS
BELLEVILLE     CLOUDY    53  46  78 S9        29.88F
CAHOKIA*       CLOUDY    55  46  71 S5        29.87F
$$

ILZ064>066-069>071-074>076-080>082-084>086-088>090-092>094-230700-
SOUTH-CENTRAL ILLINOIS

CITY           SKY/WX    TMP DP  RH WIND       PRES   REMARKS
CARBONDALE     PTCLDY    54  38  54 S12       29.93F
6HR MIN TEMP:  53; 6HR MAX TEMP:  59; 6HR PCP: TRACE;

MT. VERNON     MOCLDY    54  37  54 S5        29.94F
$$

ILZ067-068-072-073-078-083-087-091-230700-
SOUTHEAST ILLINOIS

CITY           SKY/WX    TMP DP  RH WIND       PRES   REMARKS
LAWRENCEVILLE  CLOUDY    50  39  66 S9        29.97F
$$

ABBREVIATIONS USED IN REMARKS
   TC - TEMPERATURE IN CELSIUS
  WCI - WIND CHILL INDEX
   HX - HEAT INDEX
  VSB - VISIBILITY
$$




USA.gov is the U.S. government's official web portal to all federal, state and local government web resources and services.